Time,TemperatureF,DewpointF,PressureIn,WindDirection,WindDirectionDegrees,WindSpeedMPH,WindSpeedGustMPH,Humidity,HourlyPrecipIn,Conditions,Clouds,dailyrainin,SoftwareType,DateUTC
2013-02-07 00:02:00,40.0,37.0,30.19,North,360,0.0,0.0,90,0.00,,,0.00,,2013-02-07 05:02:00,
2013-02-07 00:21:00,40.0,37.0,30.18,North,360,0.0,0.0,90,0.00,,,0.00,,2013-02-07 05:21:00,
2013-02-07 00:32:00,40.0,38.0,30.18,North,359,0.0,0.0,91,0.00,,,0.00,,2013-02-07 05:32:00,
2013-02-07 00:52:00,39.0,37.0,30.18,North,360,0.0,0.0,91,0.00,,,0.00,,2013-02-07 05:52:00,
2013-02-07 01:02:00,39.0,37.0,30.18,North,360,0.0,0.0,92,0.00,,,0.00,,2013-02-07 06:02:00,
2013-02-07 01:22:00,39.0,37.0,30.17,North,360,0.0,0.0,92,0.00,,,0.00,,2013-02-07 06:22:00,
2013-02-07 01:32:00,39.0,37.0,30.18,North,360,0.0,0.0,92,0.00,,,0.00,,2013-02-07 06:32:00,
2013-02-07 01:52:00,39.0,37.0,30.19,North,359,0.0,0.0,92,0.00,,,0.00,,2013-02-07 06:52:00,
2013-02-07 07:53:00,43.0,42.0,30.18,NE,36,1.0,2.0,95,0.00,,,0.00,,2013-02-07 12:53:00,
2013-02-07 08:03:00,46.0,44.0,30.18,ENE,58,1.0,2.0,94,0.00,,,0.00,,2013-02-07 13:03:00,
2013-02-07 08:12:00,46.0,44.0,30.18,ENE,58,1.0,2.0,94,0.00,,,0.00,,2013-02-07 13:12:00,
2013-02-07 08:22:00,48.0,46.0,30.19,ENE,61,2.0,3.0,92,0.00,,,0.00,,2013-02-07 13:22:00,
2013-02-07 08:32:00,48.0,45.0,30.19,ENE,61,2.0,4.0,91,0.00,,,0.00,,2013-02-07 13:32:00,
2013-02-07 08:42:00,48.0,45.0,30.19,ENE,61,2.0,4.0,91,0.00,,,0.00,,2013-02-07 13:42:00,
2013-02-07 08:52:00,49.0,46.0,30.18,ENE,64,2.0,6.0,90,0.00,,,0.00,,2013-02-07 13:52:00,
2013-02-07 09:01:00,49.0,46.0,30.18,ENE,61,4.0,7.0,89,0.00,,,0.00,,2013-02-07 14:01:00,
2013-02-07 09:11:00,49.0,46.0,30.18,ENE,61,4.0,7.0,89,0.00,,,0.00,,2013-02-07 14:11:00,
2013-02-07 09:22:00,50.0,47.0,30.17,ENE,73,4.0,6.0,89,0.00,,,0.00,,2013-02-07 14:22:00,
2013-02-07 09:32:00,50.0,47.0,30.17,ENE,70,2.0,5.0,89,0.00,,,0.00,,2013-02-07 14:32:00,
2013-02-07 09:42:00,50.0,47.0,30.17,ENE,70,2.0,5.0,89,0.00,,,0.00,,2013-02-07 14:42:00,
2013-02-07 09:52:00,51.0,48.0,30.16,ENE,60,3.0,9.0,88,0.00,,,0.00,,2013-02-07 14:52:00,
2013-02-07 10:02:00,52.0,48.0,30.16,NW,304,2.0,4.0,87,0.00,,,0.00,,2013-02-07 15:02:00,
2013-02-07 10:11:00,52.0,48.0,30.16,NW,304,2.0,4.0,87,0.00,,,0.00,,2013-02-07 15:11:00,
2013-02-07 10:22:00,52.0,48.0,30.18,ENE,64,3.0,4.0,85,0.00,,,0.00,,2013-02-07 15:22:00,
2013-02-07 10:32:00,53.0,48.0,30.17,ENE,68,5.0,7.0,84,0.00,,,0.00,,2013-02-07 15:32:00,
2013-02-07 10:42:00,53.0,48.0,30.17,ENE,68,5.0,7.0,84,0.00,,,0.00,,2013-02-07 15:42:00,
2013-02-07 10:52:00,53.0,48.0,30.16,ENE,63,5.0,6.0,84,0.00,,,0.00,,2013-02-07 15:52:00,
2013-02-07 11:01:00,53.0,48.0,30.17,ENE,64,3.0,5.0,84,0.00,,,0.00,,2013-02-07 16:01:00,
2013-02-07 11:11:00,53.0,48.0,30.17,ENE,64,3.0,5.0,84,0.00,,,0.00,,2013-02-07 16:11:00,
2013-02-07 11:22:00,52.0,48.0,30.17,North,352,1.0,4.0,86,0.00,,,0.00,,2013-02-07 16:22:00,
2013-02-07 11:32:00,52.0,49.0,30.16,NNE,17,1.0,2.0,90,0.02,,,0.02,,2013-02-07 16:32:00,
2013-02-07 11:42:00,52.0,49.0,30.16,NNE,17,1.0,2.0,90,0.02,,,0.02,,2013-02-07 16:42:00,
2013-02-07 11:52:00,51.0,49.0,30.16,NNE,28,2.0,2.0,92,0.04,,,0.04,,2013-02-07 16:52:00,
2013-02-07 12:01:00,51.0,49.0,30.15,North,354,1.0,3.0,93,0.05,,,0.05,,2013-02-07 17:01:00,
2013-02-07 12:11:00,51.0,49.0,30.15,North,354,1.0,3.0,93,0.05,,,0.05,,2013-02-07 17:11:00,
2013-02-07 12:21:00,51.0,49.0,30.14,NE,43,1.0,2.0,94,0.07,,,0.07,,2013-02-07 17:21:00,
2013-02-07 12:32:00,50.0,48.0,30.15,North,358,1.0,1.0,94,0.06,,,0.08,,2013-02-07 17:32:00,
2013-02-07 12:43:00,50.0,48.0,30.15,North,358,1.0,1.0,94,0.06,,,0.08,,2013-02-07 17:43:00,
2013-02-07 12:52:00,50.0,48.0,30.14,NNE,19,2.0,3.0,94,0.06,,,0.10,,2013-02-07 17:52:00,
2013-02-07 13:02:00,50.0,48.0,30.14,NNW,330,1.0,5.0,94,0.06,,,0.11,,2013-02-07 18:02:00,
2013-02-07 13:11:00,50.0,48.0,30.14,NNW,330,1.0,5.0,94,0.06,,,0.11,,2013-02-07 18:11:00,
2013-02-07 13:23:00,50.0,48.0,30.12,East,89,3.0,5.0,94,0.07,,,0.14,,2013-02-07 18:23:00,
2013-02-07 13:32:00,50.0,48.0,30.10,NNE,30,5.0,8.0,94,0.08,,,0.16,,2013-02-07 18:32:00,
2013-02-07 13:42:00,50.0,48.0,30.10,NNE,30,5.0,8.0,94,0.08,,,0.16,,2013-02-07 18:42:00,
2013-02-07 13:52:00,49.0,48.0,30.09,NNW,342,1.0,6.0,95,0.11,,,0.21,,2013-02-07 18:52:00,
2013-02-07 14:01:00,49.0,48.0,30.09,NNE,27,1.0,4.0,95,0.12,,,0.24,,2013-02-07 19:01:00,
2013-02-07 14:11:00,49.0,48.0,30.09,NNE,27,1.0,4.0,95,0.12,,,0.24,,2013-02-07 19:11:00,
2013-02-07 14:22:00,49.0,48.0,30.07,NE,39,5.0,8.0,95,0.12,,,0.26,,2013-02-07 19:22:00,
2013-02-07 14:32:00,49.0,48.0,30.07,ENE,72,3.0,9.0,95,0.13,,,0.29,,2013-02-07 19:32:00,
2013-02-07 14:42:00,49.0,48.0,30.07,ENE,72,3.0,9.0,95,0.13,,,0.29,,2013-02-07 19:42:00,
2013-02-07 14:52:00,50.0,49.0,30.06,NE,50,3.0,11.0,95,0.13,,,0.34,,2013-02-07 19:52:00,
2013-02-07 15:01:00,49.0,48.0,30.04,ENE,74,4.0,9.0,95,0.15,,,0.39,,2013-02-07 20:01:00,
2013-02-07 15:11:00,49.0,48.0,30.04,ENE,74,4.0,9.0,95,0.15,,,0.39,,2013-02-07 20:11:00,
2013-02-07 15:22:00,49.0,48.0,30.04,NE,46,2.0,6.0,95,0.17,,,0.43,,2013-02-07 20:22:00,
2013-02-07 15:32:00,50.0,49.0,30.04,ENE,65,1.0,9.0,95,0.16,,,0.45,,2013-02-07 20:32:00,
2013-02-07 15:42:00,50.0,49.0,30.04,ENE,65,1.0,9.0,95,0.16,,,0.45,,2013-02-07 20:42:00,
2013-02-07 15:52:00,50.0,49.0,30.05,NNW,347,0.0,4.0,95,0.17,,,0.51,,2013-02-07 20:52:00,
2013-02-07 16:02:00,50.0,49.0,30.05,NW,318,0.0,3.0,96,0.19,,,0.58,,2013-02-07 21:02:00,
2013-02-07 16:11:00,50.0,49.0,30.05,NW,318,0.0,3.0,96,0.19,,,0.58,,2013-02-07 21:11:00,
2013-02-07 16:22:00,50.0,49.0,30.04,NNW,338,1.0,2.0,96,0.22,,,0.65,,2013-02-07 21:22:00,
2013-02-07 16:32:00,50.0,49.0,30.03,ENE,61,4.0,5.0,96,0.22,,,0.68,,2013-02-07 21:32:00,
2013-02-07 16:42:00,50.0,49.0,30.03,ENE,61,4.0,5.0,96,0.22,,,0.68,,2013-02-07 21:42:00,
2013-02-07 16:52:00,50.0,49.0,30.02,NE,56,3.0,5.0,96,0.20,,,0.71,,2013-02-07 21:52:00,
2013-02-07 17:02:00,50.0,49.0,30.01,NE,36,3.0,5.0,96,0.17,,,0.76,,2013-02-07 22:02:00,
2013-02-07 17:11:00,50.0,49.0,30.01,NE,36,3.0,5.0,96,0.17,,,0.76,,2013-02-07 22:11:00,
2013-02-07 17:22:00,50.0,49.0,30.00,ENE,71,4.0,8.0,96,0.15,,,0.80,,2013-02-07 22:22:00,
2013-02-07 17:32:00,50.0,49.0,29.99,NNW,338,7.0,9.0,96,0.16,,,0.84,,2013-02-07 22:32:00,
2013-02-07 17:42:00,50.0,49.0,29.99,NNW,338,7.0,9.0,96,0.16,,,0.84,,2013-02-07 22:42:00,
2013-02-07 17:52:00,50.0,49.0,29.97,ENE,71,5.0,11.0,96,0.14,,,0.86,,2013-02-07 22:52:00,
2013-02-07 18:01:00,50.0,49.0,29.98,NE,51,5.0,8.0,96,0.10,,,0.87,,2013-02-07 23:01:00,
2013-02-07 18:11:00,50.0,49.0,29.98,NE,51,5.0,8.0,96,0.10,,,0.87,,2013-02-07 23:11:00,
2013-02-07 18:22:00,50.0,49.0,29.98,ENE,74,5.0,9.0,96,0.08,,,0.88,,2013-02-07 23:22:00,
2013-02-07 18:32:00,50.0,49.0,29.96,East,98,6.0,12.0,96,0.08,,,0.92,,2013-02-07 23:32:00,
2013-02-07 18:42:00,50.0,49.0,29.96,East,98,6.0,12.0,96,0.08,,,0.92,,2013-02-07 23:42:00,
2013-02-07 18:52:00,49.0,48.0,29.95,ENE,68,6.0,13.0,96,0.09,,,0.95,,2013-02-07 23:52:00,
2013-02-07 19:02:00,49.0,48.0,29.93,NE,55,5.0,12.0,96,0.13,,,1.00,,2013-02-08 00:02:00,
2013-02-07 19:11:00,49.0,48.0,29.93,NE,55,5.0,12.0,96,0.13,,,1.00,,2013-02-08 00:11:00,
2013-02-07 19:22:00,49.0,48.0,29.93,NE,49,5.0,10.0,96,0.16,,,1.04,,2013-02-08 00:22:00,
2013-02-07 19:32:00,49.0,48.0,29.91,East,81,7.0,12.0,96,0.15,,,1.08,,2013-02-08 00:32:00,
2013-02-07 19:42:00,49.0,48.0,29.91,East,81,7.0,12.0,96,0.15,,,1.08,,2013-02-08 00:42:00,
2013-02-07 19:52:00,49.0,48.0,29.91,NE,46,5.0,12.0,96,0.16,,,1.11,,2013-02-08 00:52:00,
2013-02-07 20:01:00,49.0,48.0,29.91,SE,134,2.0,10.0,96,0.18,,,1.18,,2013-02-08 01:01:00,
2013-02-07 20:11:00,49.0,48.0,29.91,SE,134,2.0,10.0,96,0.18,,,1.18,,2013-02-08 01:11:00,
2013-02-07 20:21:00,49.0,48.0,29.91,NNE,18,5.0,8.0,96,0.19,,,1.23,,2013-02-08 01:21:00,
2013-02-07 20:32:00,49.0,48.0,29.90,NE,53,4.0,9.0,96,0.21,,,1.29,,2013-02-08 01:32:00,
2013-02-07 20:42:00,49.0,48.0,29.90,NE,53,4.0,9.0,96,0.21,,,1.29,,2013-02-08 01:42:00,
2013-02-07 20:52:00,49.0,48.0,29.89,NNE,32,7.0,11.0,96,0.21,,,1.32,,2013-02-08 01:52:00,
2013-02-07 21:01:00,49.0,48.0,29.88,ENE,77,4.0,9.0,96,0.19,,,1.37,,2013-02-08 02:01:00,
2013-02-07 21:11:00,49.0,48.0,29.88,ENE,77,4.0,9.0,96,0.19,,,1.37,,2013-02-08 02:11:00,
2013-02-07 21:21:00,49.0,48.0,29.86,NNE,15,4.0,7.0,96,0.24,,,1.47,,2013-02-08 02:21:00,
2013-02-07 21:32:00,49.0,48.0,29.86,East,79,3.0,5.0,96,0.33,,,1.62,,2013-02-08 02:32:00,
2013-02-07 21:42:00,49.0,48.0,29.86,East,79,3.0,5.0,96,0.33,,,1.62,,2013-02-08 02:42:00,
2013-02-07 21:52:00,49.0,48.0,29.84,ENE,70,5.0,9.0,96,0.42,,,1.74,,2013-02-08 02:52:00,
2013-02-07 22:02:00,49.0,48.0,29.86,NNW,335,3.0,9.0,97,0.40,,,1.77,,2013-02-08 03:02:00,
2013-02-07 22:12:00,49.0,48.0,29.86,NNW,335,3.0,9.0,97,0.40,,,1.77,,2013-02-08 03:12:00,
2013-02-07 22:22:00,49.0,48.0,29.87,NNW,343,3.0,6.0,97,0.37,,,1.81,,2013-02-08 03:22:00,
2013-02-07 22:32:00,49.0,48.0,29.87,NNW,343,3.0,6.0,97,0.37,,,1.81,,2013-02-08 03:32:00,
2013-02-07 22:42:00,49.0,48.0,29.87,NNW,343,3.0,6.0,97,0.37,,,1.81,,2013-02-08 03:42:00,
2013-02-07 22:52:00,49.0,48.0,29.87,NNW,343,3.0,6.0,97,0.37,,,1.81,,2013-02-08 03:52:00,